Hutchinson, KS

3:16 PM CST on November 22, 2019 (GMT -0600)
Hutchinson Municipal

Weather History for KHUT - October, 2019

Change the Weather History Date:

Monday, October 21, 2019

  Actual Average Record
Temperature  
Mean Temperature 53 °F -  
Max Temperature 63 °F 66 °F 88 °F (2012)
Min Temperature 39 °F 41 °F 28 °F (2006)
Degree Days  
Heating Degree Days 12    
Growing Degree Days 3 (Base 50)    
Moisture  
Dew Point 28 °F    
Average Humidity 39    
Maximum Humidity 56    
Minimum Humidity 24    
Precipitation  
Precipitation 0.00 in - - ()
Sea Level Pressure  
Sea Level Pressure 29.73 in    
Wind  
Wind Speed 24 mph (WNW)    
Max Wind Speed 34 mph    
Max Gust Speed 52 mph    
Visibility 10 miles    
Events      
Averages and records for this station are not official NWS values.
T = Trace of Precipitation, MM = Missing Value Source: NWS Daily Summary

Daily Weather History Graph

Daily Weather History Graph

Search for Another Location

Airport or City:

Astronomy

Oct. 21, 2019 Rise Set
Actual Time 7:45 AM CDT 6:45 PM CDT
Civil Twilight 7:19 AM CDT 7:12 PM CDT
Nautical Twilight 6:48 AM CDT 7:43 PM CDT
Astronomical Twilight 6:17 AM CDT 8:13 PM CDT
Moon 12:01 AM CDT (10/21) 3:01 PM CDT (10/21)
Length of Visible Light 11h 53m
Length of Day
11h 00m
Waning Gibbous, 48% of the Moon is Illuminated
Oct 21
Waning Gibbous
Oct 27
New
Nov 4
First Quarter
Nov 12
Full
Nov 19
Last Quarter

Hourly Weather History & Observations

Time (CDT) Temp. Windchill Dew Point Humidity Pressure Visibility Wind Dir Wind Speed Gust Speed Precip Events Conditions
12:52 AM 54.0 °F - 28.9 °F 38% 29.59 in 10.0 mi WNW 26.5 mph 41.4 mph N/A   Clear
1:52 AM 53.1 °F - 30.0 °F 41% 29.58 in 10.0 mi WNW 31.1 mph 51.8 mph N/A   Overcast
1:59 AM 53.1 °F - 30.0 °F 41% 29.63 in 8.0 mi WNW 29.9 mph 47.2 mph N/A   Overcast
2:25 AM 51.1 °F - 30.9 °F 46% 29.63 in 10.0 mi WNW 24.2 mph 38.0 mph N/A   Scattered Clouds
2:52 AM 50.0 °F - 30.9 °F 48% 29.61 in 10.0 mi WNW 20.7 mph 33.4 mph N/A   Clear
3:52 AM 50.0 °F - 30.9 °F 48% 29.62 in 10.0 mi WNW 20.7 mph 35.7 mph N/A   Clear
4:52 AM 48.9 °F - 32.0 °F 52% 29.63 in 10.0 mi NW 27.6 mph 46.0 mph N/A   Clear
5:52 AM 48.0 °F - 32.0 °F 54% 29.66 in 10.0 mi WNW 17.3 mph 29.9 mph N/A   Clear
6:52 AM 46.9 °F - 32.0 °F 56% 29.66 in 10.0 mi West 13.8 mph - N/A   Clear
7:52 AM 46.0 °F 39.6 °F 30.9 °F 56% 29.66 in 10.0 mi WNW 15.0 mph 26.5 mph N/A   Clear
8:52 AM 48.9 °F - 30.9 °F 50% 29.66 in 10.0 mi West 18.4 mph 27.6 mph N/A   Clear
9:52 AM 53.1 °F - 30.9 °F 43% 29.67 in 10.0 mi WNW 24.2 mph 40.3 mph N/A   Clear
10:52 AM 55.9 °F - 30.0 °F 37% 29.68 in 10.0 mi West 27.6 mph 43.7 mph N/A   Clear
11:52 AM 59.0 °F - 28.0 °F 31% 29.67 in 10.0 mi WNW 28.8 mph 49.5 mph N/A   Clear
12:52 PM 61.0 °F - 28.0 °F 29% 29.70 in 10.0 mi WNW 32.2 mph 47.2 mph N/A   Mostly Cloudy
1:52 PM 62.1 °F - 28.0 °F 28% 29.70 in 10.0 mi NW 29.9 mph 50.6 mph N/A   Partly Cloudy
2:52 PM 62.1 °F - 28.0 °F 28% 29.71 in 10.0 mi WNW 34.5 mph 50.6 mph N/A   Scattered Clouds
3:52 PM 62.1 °F - 28.9 °F 29% 29.75 in 10.0 mi NW 28.8 mph 42.6 mph 0.00 in   Clear
4:52 PM 61.0 °F - 25.0 °F 25% 29.77 in 10.0 mi NW 25.3 mph 42.6 mph 0.00 in   Clear
5:52 PM 60.1 °F - 23.0 °F 24% 29.80 in 10.0 mi WNW 24.2 mph 38.0 mph N/A   Clear
6:52 PM 55.9 °F - 23.0 °F 28% 29.85 in 10.0 mi WNW 17.3 mph 27.6 mph N/A   Clear
7:52 PM 55.0 °F - 21.0 °F 27% 29.89 in 10.0 mi NW 19.6 mph 33.4 mph N/A   Clear
8:52 PM 53.1 °F - 21.0 °F 29% 29.93 in 10.0 mi NW 16.1 mph 26.5 mph N/A   Clear
9:52 PM 48.9 °F - 21.0 °F 33% 29.96 in 10.0 mi NW 10.4 mph - N/A   Clear
10:52 PM 44.1 °F 39.5 °F 21.9 °F 42% 29.99 in 10.0 mi WNW 8.1 mph - N/A   Clear
11:52 PM 39.0 °F 34.0 °F 21.0 °F 49% 30.01 in 10.0 mi WNW 6.9 mph - N/A   Clear